DateTimeUTC,F1_A11,F1_S11,BsB_S11,BsG_S11,BsR_S11,BbsB_S11,BbsG_S11,BbsR_S11,BaB_A11,BaG_A11,BaR_A11,Tu_S11,T_S11,Uu_S11,U_S11,P_S11,T1_A11
2021-12-06T21:00:00Z,00000200,21000000,,,,,,,-000.19,-000.05,-000.12,20.5,27.2,,00.0,0635.2,31.2
2021-12-06T21:01:00Z,00000200,21000000,,,,,,,-000.19,-000.29,-000.16,20.5,27.2,,00.0,0635.2,31.2
2021-12-06T21:02:00Z,00000200,21000000,,,,,,,0000.43,0000.38,0000.26,20.5,27.2,,00.0,0635.2,31.2
2021-12-06T21:03:00Z,00000200,61000000,,,,,,,-000.07,-000.19,-000.05,20.5,27.2,,00.0,0635.2,31.2
2021-12-06T21:04:00Z,00000200,41000000,0001.03,0000.13,0000.32,-000.77,0000.25,-000.17,0000.06,-000.34,-000.19,20.5,27.1,,00.0,0636.1,31.1
2021-12-06T21:05:00Z,00000200,01000000,0000.50,0000.23,0000.08,0000.14,0000.22,0000.29,-000.24,0000.49,-000.02,20.4,27.0,,00.0,0636.2,31.1
2021-12-06T21:06:00Z,00000200,01000000,0001.12,-000.02,0000.12,0000.08,0000.21,0000.01,-000.18,0000.02,0000.23,20.4,27.0,,00.0,0636.1,31.1
2021-12-06T21:07:00Z,00000200,01000000,-000.18,0000.07,0000.13,-000.40,-000.27,0000.15,0000.66,0000.03,-000.09,20.4,26.9,,00.0,0636.1,31.1
2021-12-06T21:08:00Z,00000200,01000000,-000.02,0000.06,0000.21,-000.15,0000.05,0000.14,0000.02,0000.20,0000.09,20.4,26.9,,00.0,0636.1,31.1
2021-12-06T21:09:00Z,00000200,01000000,-000.18,-000.14,0000.53,-000.42,-000.03,0000.10,0000.11,-000.30,0000.05,20.5,26.9,,00.0,0636.1,31.1
2021-12-06T21:10:00Z,00000200,01000000,0000.66,0000.29,0000.10,-000.55,0000.07,-000.23,-000.28,0000.20,0000.08,20.6,27.0,,00.0,0636.1,31.2
2021-12-06T21:11:00Z,00000200,01000000,-000.63,-000.17,0000.33,-000.22,0000.08,0000.07,0000.30,-000.02,-000.01,20.6,27.0,,00.0,0636.1,31.2
2021-12-06T21:12:00Z,00000200,01000000,0000.05,-000.10,0000.03,0000.07,0000.33,0000.37,-000.12,0000.28,-000.09,20.6,27.0,,00.0,0636.1,31.2
2021-12-06T21:13:00Z,00000200,01000000,0000.36,0000.08,0000.45,-000.13,0000.17,0000.38,0000.08,-000.15,-000.09,20.6,27.0,,00.0,0636.1,31.2
2021-12-06T21:14:00Z,00000200,01010000,0000.87,0000.02,0000.11,-000.34,0000.13,-000.09,0000.11,0000.24,0000.43,20.5,27.0,,00.0,0636.1,31.2
2021-12-06T21:15:00Z,00000200,01000000,-000.04,0000.08,-000.09,-000.79,-000.05,-000.03,0000.22,0000.29,0000.08,20.5,27.0,,00.0,0636.1,31.1
2021-12-06T21:16:00Z,00000200,01000000,0000.39,0000.09,-000.16,-000.35,-000.01,0000.08,0000.27,-000.22,-000.14,20.4,26.9,,00.0,0636.0,31.1
2021-12-06T21:17:00Z,00000200,01000000,0001.11,0000.01,0000.31,-000.63,0000.24,-000.20,0000.03,0000.43,0000.14,20.3,26.9,,00.0,0636.0,31.1
2021-12-06T21:18:00Z,00000200,01000000,0000.73,-000.01,0000.62,0000.05,0000.29,-000.07,-000.12,0000.03,0000.17,20.3,26.8,,00.0,0636.0,31.1
2021-12-06T21:19:00Z,00000200,01000000,0000.23,0000.14,0000.17,0000.03,-000.25,-000.02,0000.25,-000.02,0000.01,20.2,26.8,,00.0,0636.0,31.1
2021-12-06T21:20:00Z,00000200,01000000,0000.08,0000.17,0000.20,0000.07,0000.29,0000.15,-000.06,0000.24,0000.22,20.1,26.8,,00.0,0636.0,31.1
2021-12-06T21:21:00Z,00000200,01000000,0000.23,0000.09,0000.12,-000.13,0000.04,0000.03,-000.19,-000.57,-000.28,20.1,26.7,,00.0,0636.0,31.1
2021-12-06T21:22:00Z,00000200,01000000,0000.90,-000.11,-000.02,0000.35,0000.04,-000.36,0000.38,0000.39,0000.09,20.1,26.7,,00.0,0636.0,31.1
2021-12-06T21:23:00Z,00000200,01000000,0000.16,0000.13,0000.08,0000.07,0000.03,-000.11,0000.13,-000.13,0000.21,20.1,26.7,,00.0,0636.0,31.1
2021-12-06T21:24:00Z,00000200,01000000,0000.09,0000.19,0000.14,-000.22,0000.01,-000.13,-000.04,0000.13,0000.02,20.2,26.7,,00.0,0636.0,31.1
2021-12-06T21:25:00Z,00000200,01000000,0000.02,-000.15,-000.06,-000.55,-000.15,-000.17,-000.11,-000.14,-000.18,20.2,26.7,,00.0,0636.0,31.1
2021-12-06T21:26:00Z,00000200,01000000,0000.65,-000.10,-000.10,-000.46,-000.01,0000.28,0000.42,0000.50,0000.27,20.3,26.7,,00.0,0636.1,31.1
2021-12-06T21:27:00Z,00000200,01000000,0000.05,0000.12,0000.12,-000.02,-000.07,0000.09,-000.12,0000.14,-000.17,20.3,26.7,,00.0,0636.1,31.2
2021-12-06T21:28:00Z,00000200,01000000,-000.12,0000.15,0000.19,0000.17,0000.19,0000.10,-000.05,-000.23,0000.06,20.4,26.8,,00.0,0636.1,31.2
2021-12-06T21:29:00Z,00000200,01000000,0000.89,0000.24,0000.13,-000.57,0000.14,-000.29,-000.07,0000.16,0000.12,20.3,26.8,,00.0,0636.1,31.1
2021-12-06T21:30:00Z,00000200,01000000,-000.05,-000.00,0000.11,0000.29,-000.03,-000.23,0000.57,0000.02,0000.25,20.3,26.8,,00.0,0636.1,31.1
2021-12-06T21:31:00Z,00000200,01000000,0000.38,-000.03,0000.14,0000.58,0000.16,0000.01,-000.10,0000.11,-000.26,20.2,26.7,,00.0,0636.1,31.1
2021-12-06T21:32:00Z,00000200,01000000,0000.62,-000.28,0000.21,-000.50,-000.16,0000.23,-000.08,0000.11,0000.10,20.2,26.7,,00.0,0636.1,31.1
2021-12-06T21:33:00Z,00000200,01000000,0000.43,0000.04,0000.23,0000.23,0000.03,-000.14,-000.10,-000.47,0000.18,20.1,26.7,,00.0,0636.1,31.1
2021-12-06T21:34:00Z,00000200,01000000,0000.11,0000.29,-000.06,0000.51,-000.20,0000.22,0000.17,0000.23,-000.38,20.0,26.6,,00.0,0636.1,31.1
2021-12-06T21:35:00Z,00000200,01000000,0000.96,0000.06,0000.24,0000.23,-000.18,0000.18,-000.31,-000.11,0000.04,20.0,26.6,,00.0,0636.1,31.1
2021-12-06T21:36:00Z,00000200,01000000,0001.71,-000.16,-000.19,0000.15,-000.46,-000.02,0000.43,-000.03,-000.14,19.9,26.5,,00.0,0636.1,31.1
2021-12-06T21:37:00Z,00000200,01000000,-000.06,0000.46,0000.13,0000.05,-000.03,0000.06,-000.26,0000.09,0000.15,19.9,26.5,,00.0,0636.1,31.1
2021-12-06T21:38:00Z,00000200,01000000,0000.99,-000.08,0000.05,-000.22,0000.29,0000.07,-000.16,0000.04,0000.14,20.0,26.5,,00.0,0636.1,31.1
2021-12-06T21:39:00Z,00000200,01000000,-000.37,0000.14,0000.12,0000.30,0000.12,-000.17,0000.18,0000.17,0000.13,20.0,26.5,,00.0,0636.1,31.1
2021-12-06T21:40:00Z,00000200,01000000,0000.38,0000.13,0000.02,0000.23,-000.24,-000.16,0000.27,0000.16,-000.05,20.1,26.5,,00.0,0636.2,31.1
2021-12-06T21:41:00Z,00000200,01000000,-000.24,-000.12,-000.12,-000.09,-000.07,-000.10,-000.04,-000.02,0000.13,20.2,26.6,,00.0,0636.1,31.1
2021-12-06T21:42:00Z,00000200,01000000,-000.19,-000.33,0000.16,0000.02,-000.20,-000.06,-000.10,0000.05,0000.23,20.2,26.6,,00.0,0636.2,31.1
2021-12-06T21:43:00Z,00000200,01000000,0000.36,0000.26,0000.25,-000.11,-000.07,0000.37,0000.11,0000.14,0000.06,20.3,26.6,,00.0,0636.2,31.1
2021-12-06T21:44:00Z,00000200,01000000,-000.21,0000.25,0000.11,-000.15,0000.10,0000.03,-000.13,-000.38,-000.61,20.3,26.6,,00.0,0636.2,31.2
2021-12-06T21:45:00Z,00000200,01000000,0000.98,0000.37,-000.13,-000.22,-000.18,-000.43,0000.22,0000.35,0000.53,20.3,26.7,,00.0,0636.2,31.1
2021-12-06T21:46:00Z,00000200,01000000,0000.45,-000.08,0000.22,-000.19,-000.02,0000.03,-000.22,-000.21,-000.27,20.3,26.7,,00.0,0636.2,31.1
2021-12-06T21:47:00Z,00000200,01000000,0000.65,0000.13,0000.17,0000.01,-000.02,-000.11,-000.08,-000.36,0000.10,20.2,26.7,,00.0,0636.2,31.1
2021-12-06T21:48:00Z,00000200,01000000,0000.12,0000.04,0000.12,0000.23,0000.18,0000.01,-000.06,0000.35,0000.06,20.2,26.6,,00.0,0636.2,31.1
2021-12-06T21:49:00Z,00000200,01000000,0000.33,0000.25,0000.16,-000.02,-000.29,0000.22,0000.16,-000.05,-000.13,20.1,26.6,,00.0,0636.2,31.1
2021-12-06T21:50:00Z,00000200,01000000,-000.00,0000.01,0000.20,0000.48,-000.01,-000.11,-000.52,-000.16,-000.01,20.0,26.5,,00.0,0636.2,31.1
2021-12-06T21:51:00Z,00000200,01000000,0000.29,-000.10,0000.13,0000.40,0000.14,-000.41,0000.16,-000.02,-000.54,20.0,26.5,,00.0,0636.2,31.1
2021-12-06T21:52:00Z,00000200,01000000,-000.04,0000.40,0000.38,0000.22,0000.14,0000.45,0000.04,0000.22,0000.42,20.0,26.5,,00.0,0636.2,31.1
2021-12-06T21:53:00Z,00000200,01000000,0001.17,0000.15,0000.38,-000.49,0000.14,-000.06,0000.34,0000.06,-000.13,20.0,26.5,,00.0,0636.2,31.1
2021-12-06T21:54:00Z,00000200,01000000,0000.33,0000.26,0000.23,0000.40,-000.19,-000.25,0000.05,-000.09,0000.35,20.1,26.5,,00.0,0636.2,31.1
2021-12-06T21:55:00Z,00000200,01000000,0000.33,-000.01,-000.02,-000.09,0000.08,-000.22,-000.38,-000.10,-000.35,20.1,26.5,,00.0,0636.3,31.1
2021-12-06T21:56:00Z,00000200,01000000,0000.64,0000.11,0000.48,0000.49,-000.17,0000.20,0000.45,0000.05,0000.05,20.2,26.5,,00.0,0636.3,31.1
2021-12-06T21:57:00Z,00000200,41000000,,,,,,,0000.09,0000.14,0000.65,20.3,26.6,,00.0,0636.3,31.1
2021-12-06T21:58:00Z,00000200,61000000,,,,,,,-000.27,0000.22,-000.24,20.0,26.7,,00.0,0635.3,31.1
2021-12-06T21:59:00Z,00000200,21000000,,,,,,,0000.37,0000.22,0000.08,20.0,26.8,,00.0,0635.3,31.2
